TimeCST,TemperatureF,Dew PointF,Humidity,Sea Level PressureIn,VisibilityMPH,Wind Direction,Wind SpeedMPH,Gust SpeedMPH,PrecipitationIn,Events,Conditions,WindDirDegrees,DateUTC
12:53 AM,21.0,10.0,63,30.07,10.0,NW,19.6,23.0,N/A,,Mostly Cloudy,320,2012-12-10 06:53:00
1:53 AM,21.0,10.0,63,30.06,10.0,NW,15.0,23.0,N/A,,Overcast,310,2012-12-10 07:53:00
2:53 AM,21.0,10.9,65,30.06,10.0,WNW,12.7,-,N/A,,Overcast,300,2012-12-10 08:53:00
3:53 AM,19.9,10.9,68,30.05,10.0,NW,11.5,-,N/A,,Overcast,320,2012-12-10 09:53:00
4:53 AM,19.9,10.0,65,30.07,10.0,NW,15.0,-,N/A,,Overcast,310,2012-12-10 10:53:00
5:53 AM,19.9,10.0,65,30.07,10.0,NW,12.7,17.3,N/A,,Overcast,310,2012-12-10 11:53:00
6:53 AM,19.9,10.0,65,30.10,10.0,WNW,9.2,-,N/A,,Overcast,300,2012-12-10 12:53:00
7:27 AM,21.2,10.4,63,30.06,10.0,WNW,10.4,-,N/A,,Overcast,300,2012-12-10 13:27:00
7:53 AM,21.0,10.9,65,30.12,10.0,WNW,9.2,-,N/A,,Overcast,300,2012-12-10 13:53:00
9:53 AM,21.9,10.0,60,30.12,10.0,NW,10.4,-,N/A,,Overcast,310,2012-12-10 15:53:00
10:53 AM,23.0,10.0,58,30.13,10.0,West,12.7,-,N/A,,Overcast,280,2012-12-10 16:53:00
11:53 AM,24.1,12.0,60,30.10,10.0,West,5.8,-,N/A,,Overcast,280,2012-12-10 17:53:00
12:53 PM,26.1,12.9,58,30.09,10.0,WNW,8.1,-,N/A,,Overcast,290,2012-12-10 18:53:00
1:32 PM,28.4,15.8,59,30.04,10.0,WNW,6.9,-,N/A,,Scattered Clouds,300,2012-12-10 19:32:00
1:53 PM,28.0,15.1,58,30.07,10.0,NW,6.9,-,N/A,,Clear,310,2012-12-10 19:53:00
2:53 PM,28.0,14.0,56,30.06,10.0,West,9.2,-,N/A,,Clear,270,2012-12-10 20:53:00
3:53 PM,28.0,12.9,53,30.06,10.0,West,6.9,-,N/A,,Clear,270,2012-12-10 21:53:00
4:53 PM,26.1,12.9,58,30.06,10.0,WSW,4.6,-,N/A,,Clear,250,2012-12-10 22:53:00
5:53 PM,25.0,12.9,60,30.05,10.0,SSW,4.6,-,N/A,,Clear,210,2012-12-10 23:53:00
6:53 PM,24.1,12.0,60,30.05,10.0,SSW,3.5,-,N/A,,Clear,200,2012-12-11 00:53:00
7:53 PM,21.9,10.9,63,30.07,10.0,SSW,4.6,-,N/A,,Clear,210,2012-12-11 01:53:00
8:53 PM,23.0,10.9,60,30.07,10.0,SSW,6.9,-,N/A,,Clear,210,2012-12-11 02:53:00
9:53 PM,21.0,10.9,65,30.06,10.0,SSW,8.1,-,N/A,,Clear,210,2012-12-11 03:53:00
10:53 PM,21.9,10.9,63,30.06,10.0,SSW,5.8,-,N/A,,Clear,200,2012-12-11 04:53:00
11:53 PM,23.0,10.0,58,30.06,10.0,SSW,8.1,-,N/A,,Clear,200,2012-12-11 05:53:00